Date,TemperatureHighF,TemperatureAvgF,TemperatureLowF,DewpointHighF,DewpointAvgF,DewpointLowF,HumidityHigh,HumidityAvg,HumidityLow,PressureMaxIn,PressureMinIn,WindSpeedMaxMPH,WindSpeedAvgMPH,GustSpeedMaxMPH,PrecipitationSumIn
2013-2-1,39.0,28.1,20.3,8.0,0.6,-5.7,34,30,25,29.68,29.18,0,0,0,0.00
2013-2-2,47.5,24.8,14.5,7.6,-2.0,-8.1,36,31,20,29.83,29.62,0,0,0,0.00
2013-2-3,29.5,24.4,18.9,13.9,9.3,0.4,65,52,34,29.65,29.32,0,0,0,0.00
2013-2-4,45.1,23.9,15.4,12.0,2.5,-3.8,64,40,28,29.53,29.29,0,0,0,0.00
2013-2-5,31.1,24.7,16.9,12.4,4.3,-0.9,59,41,32,29.59,29.50,0,0,0,0.00
2013-2-6,48.2,30.4,23.0,21.5,10.0,-2.5,67,44,31,29.88,29.50,0,0,0,0.00
2013-2-7,43.5,25.2,14.0,7.3,-2.2,-6.0,45,30,22,30.09,29.85,0,0,0,0.00
2013-2-8,32.9,25.4,17.4,24.9,12.8,-0.9,83,60,35,30.06,29.18,0,0,0,0.00
2013-2-9,27.0,19.8,13.3,14.1,4.5,-7.7,77,53,36,29.77,29.15,0,0,0,0.00
2013-2-10,46.9,24.3,12.9,6.8,-1.4,-7.9,46,34,19,29.97,29.77,0,0,0,0.00
2013-2-11,36.7,26.6,12.9,29.6,12.7,-4.0,80,56,43,29.91,29.29,0,0,0,0.00
2013-2-12,58.5,38.3,28.8,33.7,17.7,13.2,88,44,26,29.47,29.21,0,0,0,0.00
2013-2-13,57.4,34.8,22.1,22.5,13.8,8.8,59,43,25,29.44,29.29,0,0,0,0.00
2013-2-14,57.9,36.2,27.1,21.4,13.3,8.8,55,40,25,29.59,29.29,0,0,0,0.00
2013-2-15,57.0,37.7,22.8,28.3,19.7,11.1,80,51,28,29.59,29.47,0,0,0,0.00
2013-2-16,40.5,35.2,30.0,26.2,20.8,14.9,75,57,39,29.53,29.41,0,0,0,0.00
2013-2-17,25.2,21.1,16.3,9.4,0.6,-7.1,63,41,32,29.26,29.00,0,0,0,0.00
2013-2-18,36.5,23.0,12.4,5.5,-4.8,-10.1,35,29,22,29.74,29.26,0,0,0,0.00
2013-2-19,53.6,35.1,17.6,37.1,15.0,-5.6,87,47,26,29.77,29.18,0,0,0,0.00
2013-2-20,41.7,32.2,24.1,35.1,11.6,-0.1,88,45,30,29.35,29.12,0,0,0,0.00
2013-2-21,43.5,28.2,22.8,12.6,4.2,0.5,43,35,28,29.77,29.35,0,0,0,0.00
2013-2-22,48.7,32.1,19.2,17.8,10.4,4.3,57,41,28,29.94,29.77,0,0,0,0.00
2013-2-23,39.4,33.4,27.0,28.9,18.8,11.7,85,56,41,29.91,29.50,0,0,0,0.00
2013-2-24,35.6,33.3,31.3,32.3,29.3,27.3,92,85,78,29.50,29.26,0,0,0,0.00
2013-2-25,46.0,34.9,27.3,31.0,24.1,18.4,85,67,39,29.83,29.47,0,0,0,0.00
2013-2-26,57.2,36.5,27.1,32.3,21.1,16.2,81,56,31,29.91,29.74,0,0,0,0.00
2013-2-27,40.5,37.4,34.5,38.2,33.3,21.5,92,86,56,29.74,29.15,0,0,0,0.00
2013-2-28,49.5,37.4,32.0,38.1,28.9,23.4,92,74,39,29.21,29.12,0,0,0,0.00